Weather History for KRSV - January, 2014

Change the Weather History Date:

Thursday, January 16, 2014

  Actual Average (KLWV) Record (KLWV)
Temperature  
Mean Temperature 30 °F 31 °F  
Max Temperature 38 °F 39 °F 60 °F (2012)
Min Temperature 21 °F 23 °F -4 °F (2009)
Degree Days  
Heating Degree Days 36 34  
Month to date heating degree days 544  
Since 1 July heating degree days 2343  
Cooling Degree Days 0 0  
Month to date cooling degree days 0  
Year to date cooling degree days 0  
Moisture  
Dew Point 26 °F    
Average Humidity 81    
Maximum Humidity 95    
Minimum Humidity 65    
Precipitation  
Precipitation 0.00 in 0.09 in 0.20 in (1997)
Month to date precipitation 1.44  
Year to date precipitation 1.44  
Sea Level Pressure  
Sea Level Pressure 29.82 in    
Wind  
Wind Speed 11 mph (SSW)    
Max Wind Speed 20 mph    
Max Gust Speed 28 mph    
Visibility 8 miles    
Events Snow    
T = Trace of Precipitation, MM = Missing Value Source: NWS Daily Summary

Daily Weather History Graph

Daily Weather History Graph

Search for Another Location

Airport or City:

Trip Planner

Search our weather history database for the weather conditions in past years. The results will help you decide how hot, cold, wet, or windy it might be!

Date:

Astronomy

Jan. 16, 2014 Rise Set
Actual Time 7:07 AM CST 4:53 PM CST
Civil Twilight 6:38 AM CST 5:22 PM CST
Nautical Twilight 6:05 AM CST 5:55 PM CST
Astronomical Twilight 5:33 AM CST 6:27 PM CST
Moon 5:44 PM CST (1/16) 7:01 AM CST (1/16)
Length of Visible Light 10h 44m
Length of Day
9h 46m
Full, 100% of the Moon is Illuminated
Jan 16
Full
Jan 23
Last Quarter
Jan 30
New
Feb 6
First Quarter
Feb 14
Full

Hourly Weather History & Observations

Time (CST) Temp. Windchill Dew Point Humidity Pressure Visibility Wind Dir Wind Speed Gust Speed Precip Events Conditions
12:15 AM 21.7 °F 12.3 °F 18.5 °F 87% 30.03 in 10.0 mi South 8.1 mph - N/A   Clear
12:35 AM 22.1 °F 12.8 °F 18.9 °F 87% 30.03 in 10.0 mi South 8.1 mph - N/A   Clear
12:55 AM 23.0 °F 13.9 °F 19.4 °F 86% 30.03 in 10.0 mi South 8.1 mph - N/A   Mostly Cloudy
1:15 AM 23.9 °F 15.0 °F 20.1 °F 85% 30.02 in 10.0 mi South 8.1 mph - N/A   Overcast
1:35 AM 24.8 °F 14.6 °F 20.3 °F 83% 30.02 in 10.0 mi South 10.4 mph - N/A   Overcast
1:55 AM 25.3 °F 14.7 °F 20.8 °F 83% 29.99 in 10.0 mi South 11.5 mph - N/A   Overcast
2:15 AM 25.5 °F 14.9 °F 20.8 °F 82% 29.99 in 10.0 mi South 11.5 mph - N/A   Overcast
2:35 AM 25.7 °F 15.7 °F 21.0 °F 82% 29.98 in 10.0 mi South 10.4 mph - N/A   Overcast
2:55 AM 26.1 °F 16.2 °F 21.4 °F 82% 29.98 in 10.0 mi South 10.4 mph - N/A   Overcast
3:15 AM 26.2 °F 15.2 °F 21.9 °F 84% 29.97 in 10.0 mi South 12.7 mph - N/A   Overcast
3:35 AM 26.6 °F 15.7 °F 22.1 °F 83% 29.94 in 10.0 mi South 12.7 mph - N/A   Overcast
3:55 AM 27.1 °F 15.4 °F 22.3 °F 82% 29.93 in 10.0 mi South 15.0 mph - N/A   Overcast
4:15 AM 27.5 °F 16.3 °F 22.5 °F 81% 29.93 in 10.0 mi South 13.8 mph - N/A   Overcast
4:35 AM 27.9 °F 16.8 °F 22.5 °F 80% 29.92 in 10.0 mi South 13.8 mph 18.4 mph N/A   Overcast
4:55 AM 28.2 °F 17.2 °F 22.1 °F 78% 29.90 in 10.0 mi South 13.8 mph - N/A   Overcast
5:15 AM 28.2 °F 17.7 °F 22.1 °F 78% 29.89 in 10.0 mi South 12.7 mph 17.3 mph N/A   Overcast
5:35 AM 28.4 °F 17.5 °F 22.3 °F 78% 29.87 in 10.0 mi South 13.8 mph - N/A   Overcast
5:55 AM 28.8 °F 17.9 °F 22.1 °F 76% 29.87 in 10.0 mi South 13.8 mph - N/A   Overcast
6:15 AM 28.6 °F 16.4 °F 23.0 °F 80% 29.86 in 5.0 mi South 17.3 mph 20.7 mph N/A Snow Light Snow
6:35 AM 27.7 °F 16.1 °F 24.4 °F 88% 29.86 in 1.5 mi South 15.0 mph 23.0 mph N/A Snow Light Snow
6:55 AM 27.3 °F 15.6 °F 25.5 °F 93% 29.85 in 1.5 mi South 15.0 mph - N/A Snow Light Snow
7:15 AM 27.3 °F 15.6 °F 25.7 °F 94% 29.85 in 1.5 mi South 15.0 mph - N/A Snow Light Snow
7:35 AM 27.1 °F 14.9 °F 25.7 °F 94% 29.84 in 1.2 mi South 16.1 mph 19.6 mph N/A Snow Light Snow
7:55 AM 27.3 °F 15.2 °F 25.7 °F 94% 29.84 in 1.0 mi South 16.1 mph 19.6 mph N/A Snow Light Snow
8:15 AM 27.7 °F 15.2 °F 26.1 °F 94% 29.85 in 1.0 mi South 17.3 mph 21.9 mph N/A Snow Light Snow
8:35 AM 27.9 °F 15.9 °F 26.6 °F 95% 29.85 in 1.0 mi SSW 16.1 mph - N/A Snow Light Snow
8:55 AM 28.0 °F 14.9 °F 26.4 °F 94% 29.83 in 1.0 mi South 19.6 mph 27.6 mph N/A Snow Light Snow
9:15 AM 28.8 °F 17.5 °F 26.6 °F 92% 29.82 in 1.2 mi South 15.0 mph 20.7 mph N/A Snow Light Snow
9:35 AM 28.9 °F 16.9 °F 26.6 °F 91% 29.83 in 1.8 mi SSW 17.3 mph 24.2 mph N/A Snow Light Snow
9:55 AM 29.1 °F 18.4 °F 26.4 °F 90% 29.83 in 3.0 mi SSW 13.8 mph 19.6 mph N/A Snow Light Snow
10:15 AM 29.3 °F 18.2 °F 26.2 °F 88% 29.81 in 10.0 mi SSW 15.0 mph 19.6 mph N/A   Overcast
10:35 AM 30.2 °F 20.2 °F 25.7 °F 83% 29.81 in 10.0 mi South 12.7 mph 18.4 mph N/A   Overcast
10:55 AM 31.1 °F 20.1 °F 24.8 °F 77% 29.80 in 10.0 mi SSW 16.1 mph 23.0 mph N/A   Overcast
11:15 AM 32.0 °F 22.5 °F 24.4 °F 74% 29.79 in 10.0 mi SSW 12.7 mph - N/A   Overcast
11:35 AM 32.4 °F 22.1 °F 24.6 °F 73% 29.77 in 10.0 mi SSW 15.0 mph - N/A   Overcast
11:55 AM 32.7 °F 23.0 °F 24.8 °F 73% 29.75 in 10.0 mi SSW 13.8 mph 20.7 mph N/A   Overcast
12:15 PM 33.8 °F 24.8 °F 25.2 °F 71% 29.74 in 10.0 mi SSW 12.7 mph - N/A   Overcast
12:30 PM 34.2 °F 24.0 °F 25.3 °F 70% 29.73 in 10.0 mi SSW 16.1 mph 19.6 mph N/A   Overcast
12:55 PM 34.5 °F 25.7 °F 25.2 °F 69% 29.73 in 10.0 mi SSW 12.7 mph 18.4 mph N/A   Overcast
1:15 PM 34.2 °F 25.2 °F 27.3 °F 76% 29.71 in 3.0 mi SSW 12.7 mph - N/A Snow Light Snow
1:35 PM 35.2 °F 26.6 °F 26.8 °F 71% 29.71 in 10.0 mi SSW 12.7 mph - N/A   Mostly Cloudy
1:55 PM 36.1 °F 27.7 °F 26.8 °F 69% 29.71 in 10.0 mi SSW 12.7 mph 18.4 mph N/A   Scattered Clouds
2:15 PM 36.5 °F 30.3 °F 27.3 °F 69% 29.70 in 10.0 mi SSW 8.1 mph 12.7 mph N/A   Mostly Cloudy
2:35 PM 37.0 °F 29.3 °F 27.5 °F 68% 29.70 in 10.0 mi SSW 11.5 mph 17.3 mph N/A   Overcast
2:55 PM 37.0 °F 30.4 °F 28.2 °F 70% 29.71 in 10.0 mi SSW 9.2 mph - N/A   Overcast
3:15 PM 37.4 °F 30.3 °F 28.4 °F 70% 29.72 in 10.0 mi SSW 10.4 mph - N/A   Overcast
3:35 PM 37.6 °F 30.0 °F 28.8 °F 70% 29.72 in 10.0 mi SSW 11.5 mph - N/A   Overcast
3:55 PM 37.9 °F 30.5 °F 29.5 °F 72% 29.73 in 10.0 mi SSW 11.5 mph - N/A   Overcast
4:15 PM 38.1 °F 31.2 °F 29.8 °F 72% 29.73 in 10.0 mi South 10.4 mph - N/A   Overcast
4:35 PM 37.8 °F 30.7 °F 30.2 °F 74% 29.72 in 10.0 mi South 10.4 mph - N/A   Overcast
4:55 PM 36.7 °F 29.4 °F 30.2 °F 77% 29.73 in 10.0 mi South 10.4 mph - N/A   Overcast
5:15 PM 36.7 °F 28.9 °F 30.4 °F 78% 29.73 in 10.0 mi SSW 11.5 mph - N/A   Mostly Cloudy
5:35 PM 36.7 °F 28.4 °F 30.7 °F 79% 29.74 in 10.0 mi SSW 12.7 mph - N/A   Overcast
5:55 PM 37.9 °F 30.0 °F 31.5 °F 77% 29.76 in 10.0 mi SW 12.7 mph - N/A   Overcast
6:15 PM 36.9 °F 29.6 °F 30.7 °F 79% 29.77 in 10.0 mi WSW 10.4 mph - N/A   Scattered Clouds
6:35 PM 37.4 °F 30.8 °F 31.1 °F 78% 29.78 in 10.0 mi WSW 9.2 mph - N/A   Mostly Cloudy
6:55 PM 38.1 °F 30.7 °F 29.7 °F 72% 29.79 in 10.0 mi West 11.5 mph - N/A   Mostly Cloudy
7:15 PM 38.7 °F 31.4 °F 27.9 °F 65% 29.79 in 10.0 mi West 11.5 mph 17.3 mph N/A   Overcast
7:35 PM 37.2 °F 30.6 °F 28.4 °F 70% 29.79 in 10.0 mi West 9.2 mph - N/A   Mostly Cloudy
7:55 PM 35.6 °F 31.7 °F 28.8 °F 76% 29.79 in 10.0 mi West 4.6 mph - N/A   Mostly Cloudy
8:15 PM 34.7 °F 29.6 °F 29.1 °F 80% 29.80 in 10.0 mi West 5.8 mph - N/A   Mostly Cloudy
8:35 PM 35.8 °F 30.9 °F 30.9 °F 82% 29.80 in 10.0 mi SW 5.8 mph - N/A   Overcast
8:55 PM 35.1 °F 30.1 °F 31.8 °F 88% 29.80 in 10.0 mi SW 5.8 mph - N/A   Overcast
9:15 PM 35.2 °F 29.5 °F 31.6 °F 87% 29.81 in 10.0 mi SSW 6.9 mph - N/A   Overcast
9:35 PM 32.9 °F 27.5 °F 30.4 °F 90% 29.80 in 10.0 mi SSW 5.8 mph - N/A   Mostly Cloudy
9:55 PM 31.8 °F 25.4 °F 28.9 °F 89% 29.79 in 10.0 mi SSW 6.9 mph - N/A   Scattered Clouds
10:15 PM 32.0 °F 25.6 °F 29.1 °F 89% 29.79 in 10.0 mi SSW 6.9 mph - N/A   Clear
10:35 PM 32.0 °F 25.6 °F 29.3 °F 90% 29.78 in 10.0 mi SSW 6.9 mph - N/A   Scattered Clouds
10:55 PM 32.0 °F 24.8 °F 29.7 °F 91% 29.78 in 10.0 mi South 8.1 mph - N/A   Mostly Cloudy
11:15 PM 32.9 °F 25.9 °F 30.7 °F 92% 29.77 in 10.0 mi SSW 8.1 mph - N/A   Mostly Cloudy
11:35 PM 32.9 °F 26.7 °F 30.2 °F 90% 29.77 in 10.0 mi SSW 6.9 mph - N/A   Mostly Cloudy
11:55 PM 32.7 °F 25.0 °F 30.2 °F 90% 29.76 in 10.0 mi SW 9.2 mph - N/A   Scattered Clouds